www.pogodaiklimat.ru

АРХИВ ПОГОДЫ в Норс-Бенде

Время (UTC), дата Ветер
(напр.,м/с)
 
Видим.   Явления Облачность Т
(С)
Тd
(С)
f
(%)
Тe
(С)
Тes
(С)
Комфортность

P
(гПа)

Po
(гПа)
Тmin
(С)
Tmax
(С)
R
(мм)
SD
(см)
04:56 25.05 С  16 км    10/10 870 м  +11.1  +8.9  86  +8  +8    1019.7  1018.9  +11.1  +13.3     
05:56 25.05 СВ  16 км    10/10 810 м  +11.1  +7.8  80  +9  +9    1019.4  1018.6         
06:10 25.05 С  6
{8} 
11 км  дождь  10/10 480 м  +11.0  +8.0  82  +8  +8      1018.9         
06:56 25.05 С  16 км    10/10 720 м  +10.6  +8.9  89  +10  +10    1019.2  1018.6         
07:39 25.05 СЗ  16 км    10/10 480 м  +10.0  +9.0  93  +9  +9      1018.6         
07:56 25.05 СЗ  11 км  слабый дождь  10/10 360 м  +10.6  +9.4  92  +8  +8    1019.2  1018.6      0.5   
08:09 25.05 С  6 км  слабый дождь, дымка  10/10 180 м  +10.0  +9.0  93  +7  +7      1018.6         
08:24 25.05 С  14 км  слабый дождь  10/10 180 м  +10.0  +9.0  93  +7  +7      1018.6         
08:47 25.05 С  16 км    10/10 870 м  +9.0  +8.0  93  +6  +6      1018.2         
08:56 25.05 С  16 км    10/10 1020 м  +9.4  +8.9  97  +7  +7    1018.8  1018.2         
09:18 25.05 С  6 км  слабый дождь, дымка  10/10 180 м  +9.0  +9.0  100  +6  +6      1018.2         
09:25 25.05 С  6 км  слабый дождь, дымка  10/10 180 м  +9.0  +9.0  100  +6  +6      1018.2         
09:49 25.05 С  6 км  слабый дождь, дымка  10/10 180 м  +9.0  +9.0  100  +7  +7      1018.2         
09:56 25.05 нст  4 км  слабый дождь, дымка  10/10 120 м  +9.4  +9.4  100  +8  +8    1018.7  1017.9         
10:09 25.05 СВ  6 км  слабый дождь, дымка  10/10 120 м  +9.0  +9.0  100  +7  +7      1017.9         
10:24 25.05 С  16 км  слабый дождь  10/10 120 м  +9.0  +9.0  100  +7  +7      1017.9         
10:38 25.05   6 км  слабый дождь, дымка  10/10 150 м  +9.0  +9.0  100  +8  +8      1017.9         
10:56 25.05 Ю  16 км    10/10 180 м  +9.4  +9.4  100  +8  +8    1018.2  1017.6  +9.4  +11.1  2.8   
11:04 25.05   11 км    10/10 240 м  +9.0  +9.0  100  +8  +8      1017.6         
11:56 25.05 ЮВ  16 км    10/10 240 м  +9.4  +9.4  100  +7  +7    1017.9  1017.2         
12:28 25.05 ЮВ  16 км    10/10 240 м  +9.0  +9.0  100  +6  +6      1016.9         
12:56 25.05 ЮВ  11 км  слабый дождь  10/10 420 м  +9.4  +9.4  100  +7  +7    1017.7  1017.2         
13:28 25.05 ЮВ  3 км  слабый дождь, дымка  10/10 120 м  +10.0  +9.0  93  +9  +9      1017.2         
13:39 25.05 ЮВ  13 км  слабый дождь  10/10 120 м  +10.0  +9.0  93  +8  +8      1017.2         
13:56 25.05 ЮВ  16 км    10/10 120 м  +10.0  +9.4  96  +8  +8    1017.8  1017.2      0.5   
14:53 25.05 ЮВ  13 км    10/10 180 м  +10.0  +9.0  93  +8  +8      1016.6         
14:56 25.05 ЮВ  8 км  дымка  10/10 180 м  +10.0  +10.0  100  +8  +8    1017.1  1016.6         
15:56 25.05   11 км    10/10 660 м  +11.1  +9.4  89  +10  +10    1017.2  1016.6         
16:12 25.05   16 км    10/10 270 м  +12.0  +9.0  82  +11  +11      1016.6         
16:28 25.05   16 км    10/10 390 м  +12.0  +10.0  88  +11  +11      1016.2         
16:52 25.05 З  16 км    10/10 390 м  +12.0  +9.0  82  +11  +11      1016.2         
16:56 25.05 З  16 км    10/10 390 м  +11.7  +9.4  86  +10  +10    1016.9  1016.2  +9.4  +12.2  0.5   
17:56 25.05 З  16 км    10/10 540 м  +11.7  +10.0  89  +9  +9    1016.9  1016.2         
18:04 25.05 З  13 км    10/10 540 м  +12.0  +10.0  88  +9  +9      1016.2         
18:11 25.05 З  14 км    10/10 480 м  +11.0  +10.0  94  +8  +8      1016.2         
18:29 25.05 З  6 км  дымка  10/10 120 м  +11.0  +11.0  100  +8  +8      1016.2         
18:48 25.05 З  3 км  слабый дождь, дымка  10/10 180 м  +11.0  +11.0  100  +9  +9      1016.2         
18:56 25.05 З  3 км  слабый дождь, дымка  10/10 180 м  +11.1  +10.6  97  +9  +9    1016.7  1016.2         
19:03 25.05 З  4 км  слабый дождь, дымка  10/10 180 м  +11.0  +11.0  100  +9  +9      1015.9         
19:12 25.05 З  6 км  слабый дождь, дымка  10/10 180 м  +11.0  +11.0  100  +9  +9      1015.9         
19:56 25.05 СЗ  3 км  слабый дождь, дымка  10/10 180 м  +11.1  +10.6  97  +8  +8    1016.3  1015.5      0.3   
20:10 25.05 СЗ  6 км  слабый дождь, дымка  10/10 180 м  +11.0  +11.0  100  +7  +7      1015.5         
20:22 25.05 СЗ  4 км  слабый дождь, дымка  10/10 180 м  +11.0  +11.0  100  +8  +8      1015.2         
20:37 25.05 СЗ  5 км  слабый дождь, дымка  10/10 180 м  +11.0  +11.0  100  +8  +8      1015.2         
20:44 25.05 С  3 км  слабый дождь, дымка  10/10 180 м  +11.0  +11.0  100  +8  +8      1015.2         
20:48 25.05 СЗ  3 км  слабый дождь, дымка  10/10 180 м  +11.0  +11.0  100  +7  +7      1014.9         
20:53 25.05 СЗ  5 км  слабый дождь, дымка  10/10 180 м  +11.0  +11.0  100  +8  +8      1014.9         
20:56 25.05 СЗ  6 км  слабый дождь, дымка  10/10 180 м  +11.1  +10.6  97  +8  +8    1015.6  1014.9         

 

Местоположение метеостанции North Bend Municipal Airport: широта 43.4167 долгота -124.2500 высота над уровнем моря 5 м.

В архиве по умолчанию представлена погода в Норс-Бенде за последние 1-2 суток. Обновление информации о фактической погоде в базе происходит ежечасно! Архивные данные за месяц целиком и за предыдущие месяцы Вы можете получить, выбрав интересующий диапазон дат из раскрывающегося списка и нажав кнопку "Ввод!".

Внимание! Архив погоды МЕТАР в базе сайта в настоящее время начинается c 1 января 2011 г. Нет смысла пытаться выбрать более раннюю дату.

Внимание! Время в таблицах - всемирное. Для получения местного времени необходимо прибавить поправку, которая в Норс-Бенде равна -8 ч.

Ветер - указаны скорость ветра в м/с и направление, откуда дует ветер: С - северный, СВ - северо-восточный, В - восточный, ЮВ - юго-восточный, Ю - южный, ЮЗ - юго-западный, З - западный, СЗ - северо-западный.
Видимость - горизонтальная дальность видимости в метрах или километрах. При видимости от 1 до 10 км при отсутствии осадков обычно наблюдается дымка, при ухудшении видимости до 1 км и менее - туман. В сухую погоду видимость может ухудшаться дымом, пылью или мглою.
Атмосферные явления - указаны явления, наблюдавшиеся в указанный момент времени.
Облачность - указаны через наклонную черту верхняя и нижняя облачность в баллах и высота нижней границы облаков в метрах. Внимание: облачность, как и прочие метеорологические величины в США измеряются автоматическими метеостанциями. Указанные значения в баллах носят условный характер и показывают процент времени, в течение которого, в среднем, лазерный луч высотомера отражался от облаков обратно.
T - Температура воздуха - температура, измеренная на высоте 2 м над землей.
Td - Температура точки росы - температура, при понижении до которой содержащийся в воздухе водяной пар достигнет насыщения.
f - Относительная влажность воздуха - влажноcть воздуха, измеренная на высоте 2 м над землей.
Te - Эффективная температура - температура, которую ощущает одетый по сезону человек в тени. Характеристика душности погоды. При расчете учитывается влияние влажности воздуха и скорости ветра на теплоощущения человека.
Tes - Эффективная температура на солнце - температура, которую ощущает человек, с поправкой на солнечный нагрев. Характеристика знойности погоды. Зависит от высоты солнца над горизонтом, облачности и скорости ветра. Ночью, в пасмурную погоду, а также при ветре 12 м/с и более поправка равна нулю.
P - Атмосферное давление - приведенное к уровню моря атмосферное давление.
Po - Атмосферное давление - измеренное на уровне метеостанции атмосферное давление.
Tmin - Минимальная температура - минимум температуры воздуха на высоте 2 м над землей.
Tmax - Максимальная температура - максимум температуры воздуха на высоте 2 м над землей.
R - Количество осадков - Количество выпавших осадков за 3 или 6 часов, мм.
SD - Снежный покров - Высота снежного покрова, см.